Location: Boca do Mato
(22.9085°S, 43.2930°W)
Time: 22:40:49
(UTC+00:00)

Cosmos 1980 Rocket - Pass Details

Date: 14 July 2020
Orbit: 828 x 851 km, 71.0° (Epoch: 10 August)

Event Time Altitude Azimuth Distance (km) Brightness Sun altitude
Rises 07:06:38 0° 351° (N) 3,379 5.4 -33.2°
Enters shadow 07:07:13 - 352° (N) 3,152 5.2 -33.0°
Exits shadow 07:14:56 63° 92° (E) 937 2.5 -31.3°
Drops below altitude 10° 07:20:12 10° 154° (SSE) 2,458 4.7 -30.1°
Sets 07:22:40 0° 157° (SSE) 3,395 5.5 -29.6°
